Theta_e
355 355 352 346 345 349 346 344 349 348 338 332 329 329 334 336 336 344 348 347 344 345 342 341 344 344 340 336 335 334 334 333 334 334 334 334 333 333 332 331 331 331 331 330 330 330 330 330 330 331 331 331 331 331 331 332 332 331 332 332 332 331 329 327 326 324 323 323 324 324 323 323 324 325
354 356 355 351 349 349 348 346 351 351 338 329 330 330 329 329 330 335 342 343 343 344 343 342 344 346 344 342 338 337 336 334 334 335 335 335 335 335 335 335 334 334 333 333 333 332 332 332 332 332 332 332 333 333 333 333 332 332 333 333 333 333 333 333 331 329 326 324 323 323 324 324 324 324
349 352 353 355 354 354 354 352 353 355 350 341 339 340 336 334 335 335 337 342 341 340 343 342 341 343 344 345 344 343 340 337 335 334 333 334 334 334 335 335 335 334 334 335 335 335 335 335 335 335 335 335 334 335 335 335 335 334 334 334 334 334 334 334 334 334 332 329 325 323 323 324 324 324
346 345 344 349 351 351 351 349 350 355 356 352 348 348 346 341 339 338 337 339 337 335 339 339 338 341 345 346 345 343 339 335 333 333 333 333 333 333 333 333 334 333 334 334 335 335 335 336 337 337 337 337 337 337 337 337 337 337 337 336 336 336 335 335 335 335 335 334 331 328 324 323 323 324
347 345 341 342 343 345 346 347 351 355 356 356 353 352 352 350 349 346 340 337 336 335 336 337 337 339 341 340 338 337 335 333 334 335 334 334 334 335 333 332 333 332 332 333 334 334 335 335 336 337 338 339 339 339 338 338 338 338 338 338 337 337 337 336 336 336 336 336 335 334 329 326 324 324
342 344 342 341 341 343 343 344 349 355 355 356 356 356 356 356 356 354 349 342 339 336 336 338 338 339 342 342 338 336 334 332 334 336 335 335 337 337 337 338 338 338 337 337 338 340 340 341 341 341 342 342 342 342 342 341 340 339 338 338 337 337 337 337 337 337 336 336 336 336 335 332 327 324
335 337 339 342 345 348 349 344 344 351 354 353 354 355 355 356 356 356 354 349 343 338 336 337 338 340 343 343 337 334 333 333 334 335 334 337 340 341 343 345 345 345 345 346 346 347 346 346 346 346 346 348 348 348 348 347 346 344 343 341 339 337 336 337 337 337 337 337 336 336 336 335 333 329
335 337 340 343 347 353 356 351 344 347 351 350 350 349 345 343 344 345 346 345 341 337 336 335 335 335 336 334 331 330 331 332 335 337 340 344 346 348 350 349 348 348 349 351 352 353 352 351 349 347 346 348 348 349 351 352 352 350 349 348 346 343 341 338 337 337 337 337 337 337 336 336 335 334
337 340 342 345 349 355 357 353 349 351 353 349 345 344 340 338 337 335 334 335 337 338 339 337 335 332 330 330 329 331 334 338 342 348 351 352 351 352 353 353 352 352 354 355 355 355 354 352 350 349 350 350 349 350 350 351 352 352 352 352 351 350 348 345 341 339 338 337 337 337 336 336 336 335
335 337 338 343 349 353 355 356 355 355 354 346 340 338 338 341 342 341 339 338 340 344 344 339 334 332 331 333 333 338 345 350 352 354 354 354 354 355 356 354 353 355 356 355 356 355 353 352 352 352 353 353 353 352 352 350 349 348 349 351 353 353 353 351 348 345 341 340 338 337 336 336 336 336
339 340 339 342 345 345 345 349 352 354 351 345 339 337 339 343 347 348 350 350 351 353 351 344 339 338 338 338 339 346 352 354 355 356 356 356 356 356 356 355 354 356 356 354 354 355 354 354 355 354 354 353 350 348 346 345 343 342 340 343 346 347 347 348 350 350 349 345 342 339 337 335 335 336
344 348 348 349 348 344 338 336 340 345 345 342 341 340 343 346 347 347 348 350 351 352 349 343 341 341 341 341 344 352 356 357 357 358 357 357 357 357 357 357 356 356 356 356 356 357 356 356 356 354 351 346 340 337 335 335 337 339 339 339 338 336 333 335 339 345 349 351 348 344 341 338 336 335
344 346 349 351 351 350 346 337 332 333 335 335 336 338 340 342 343 341 342 342 343 342 340 338 340 342 345 348 352 356 359 359 358 358 357 357 356 357 358 358 358 356 356 357 357 357 358 357 353 347 339 334 330 328 328 331 333 335 337 338 339 337 335 332 331 333 338 346 350 349 347 342 339 336
346 346 345 346 348 351 349 340 332 330 330 330 330 332 333 335 335 335 339 340 339 339 338 339 345 350 352 356 358 359 359 358 358 358 358 357 356 356 356 358 358 357 357 357 355 354 354 349 340 333 329 327 327 327 327 331 332 330 331 334 337 338 338 336 334 332 332 335 340 346 348 347 343 339
341 344 345 344 345 345 340 333 329 329 329 329 329 329 329 330 330 330 333 335 336 339 341 343 349 353 355 357 358 359 359 359 359 358 357 357 357 356 357 358 357 355 356 356 352 347 342 335 331 330 329 328 327 325 327 330 333 335 336 337 338 338 339 339 337 336 334 333 334 336 341 345 346 344
330 335 341 344 347 346 339 330 328 328 327 327 329 328 328 329 329 329 330 331 333 336 340 343 345 348 351 354 354 357 359 359 358 358 358 358 357 357 357 357 356 355 354 349 343 336 332 333 335 336 337 339 340 336 334 333 334 337 339 340 340 340 340 340 340 340 338 337 336 335 336 339 343 345
328 328 331 336 341 344 342 335 329 328 327 327 328 328 328 329 328 329 330 330 331 333 336 339 339 341 347 350 350 354 358 359 358 358 358 358 358 357 356 355 355 353 345 336 334 332 331 335 341 343 345 347 347 345 343 340 335 333 336 338 340 340 340 342 342 343 343 342 341 340 339 340 340 342
330 329 328 328 330 331 333 330 327 327 327 327 327 327 328 329 330 331 332 332 333 334 336 338 340 341 345 348 350 354 358 358 358 358 358 358 356 356 355 353 350 344 335 334 338 337 335 340 345 348 347 345 344 344 344 340 335 334 337 339 341 342 342 343 343 343 344 344 344 342 342 342 341 340
333 331 329 327 326 326 326 326 326 327 327 328 330 329 329 329 330 330 331 330 333 336 339 343 345 345 348 349 352 357 358 358 358 358 357 356 355 354 351 344 339 337 336 340 344 343 343 345 346 343 342 342 342 341 340 338 337 339 341 342 342 342 342 343 344 344 344 345 344 343 343 342 341 340
332 331 329 328 326 326 326 326 326 326 327 329 331 333 334 334 339 344 343 340 341 343 347 350 349 349 350 352 354 357 357 358 357 356 356 355 353 350 343 334 335 342 342 342 346 347 344 342 340 337 337 339 338 337 339 341 342 342 343 343 342 343 343 343 344 344 344 344 344 344 344 344 343 340
329 330 330 328 328 327 326 326 325 327 327 327 330 333 334 336 342 347 350 352 354 355 356 356 352 350 352 354 356 357 357 357 357 355 355 352 346 339 333 329 334 342 346 345 346 344 338 334 336 335 332 333 335 338 340 342 343 343 343 343 343 343 343 343 343 342 342 343 343 344 344 344 344 342
331 330 329 328 328 327 327 326 326 326 327 327 330 331 333 335 337 338 344 353 358 358 358 358 355 354 356 358 359 358 357 355 355 353 349 342 334 330 332 333 332 338 344 345 341 334 329 329 331 331 330 329 333 338 341 342 341 342 341 341 341 342 342 341 341 341 341 341 342 342 342 342 343 343
332 331 330 329 328 327 327 327 327 327 327 329 330 331 333 336 337 341 349 357 360 360 360 359 358 359 361 362 360 358 356 354 351 345 339 333 331 335 341 340 336 335 339 338 332 327 326 326 326 330 335 336 333 333 337 338 337 336 337 338 340 340 340 339 339 338 338 338 338 339 339 340 341 342
334 332 330 329 328 327 328 328 327 328 328 328 331 332 333 336 341 349 355 358 359 360 358 357 359 361 363 362 360 357 354 351 345 339 336 336 338 341 340 337 333 333 334 332 328 325 325 327 326 328 334 337 337 334 333 333 332 333 335 338 338 338 337 337 337 337 337 338 338 338 339 339 339 339
339 337 334 330 329 328 328 328 329 330 329 329 330 331 332 335 342 349 354 355 356 357 357 356 357 359 359 359 356 351 347 343 342 342 343 342 341 339 334 328 325 327 328 327 327 326 325 327 328 328 331 335 337 335 333 331 332 333 335 336 336 336 336 336 337 338 338 339 339 339 339 339 339 338
343 344 342 338 335 332 329 330 331 331 331 331 331 331 332 335 338 344 349 353 353 354 357 358 358 358 357 354 349 345 343 342 342 342 339 336 333 330 326 324 324 324 325 325 325 325 325 325 327 330 333 335 335 334 334 333 333 334 334 335 336 337 337 338 338 338 339 339 340 340 340 339 339 339
349 351 352 351 347 343 341 338 337 336 336 335 332 332 334 337 341 345 349 352 353 355 357 359 358 358 356 351 346 345 343 340 337 334 330 328 327 325 323 323 324 324 325 325 324 324 326 326 326 330 333 335 334 334 334 335 335 335 335 336 337 337 338 338 339 340 340 341 341 341 341 340 340 340
357 357 358 358 356 354 353 349 345 343 342 341 338 339 340 342 346 349 351 353 355 356 358 358 357 354 349 345 343 341 336 331 329 327 327 326 324 323 322 323 324 324 324 324 325 325 325 325 326 329 333 335 335 334 334 335 335 335 336 337 337 337 339 339 340 340 341 341 341 341 341 341 340 339
359 358 359 359 359 358 356 354 351 349 348 346 346 346 347 348 350 351 354 356 357 358 358 356 352 349 346 344 342 336 330 327 327 326 325 324 322 322 322 323 323 323 322 322 323 323 322 322 325 328 330 331 333 333 333 333 334 335 336 338 337 337 338 338 339 340 340 341 342 342 342 342 341 340
359 358 358 357 358 358 358 357 356 354 352 350 350 351 351 352 352 354 356 357 357 358 355 351 347 346 344 341 337 331 327 327 327 325 323 322 322 322 322 322 321 321 321 321 321 320 319 319 321 324 325 326 329 331 331 333 334 334 335 334 332 332 333 334 336 337 338 339 341 341 342 342 342 340
359 359 358 357 357 358 358 358 358 357 354 353 353 353 353 354 354 356 357 356 357 357 354 351 349 345 339 334 330 327 328 328 325 324 322 321 321 321 321 321 321 320 320 320 320 320 320 319 318 320 322 325 327 329 330 332 334 333 330 327 325 326 327 329 331 332 334 336 338 339 339 341 341 341
359 359 358 358 357 357 357 358 358 357 356 355 354 354 355 355 356 357 358 358 359 358 356 355 351 341 332 329 327 327 330 329 324 321 321 320 320 320 320 321 321 320 319 319 320 320 320 319 318 318 319 324 327 329 330 331 331 329 325 323 323 325 326 327 328 329 331 332 334 335 337 340 341 341
360 359 359 359 358 357 357 357 357 356 356 355 355 355 355 355 357 358 358 359 359 355 351 349 343 332 327 329 328 329 331 329 323 320 320 320 320 321 320 321 321 320 319 320 323 324 322 320 320 318 317 322 327 328 329 329 328 324 322 321 322 324 326 327 329 330 331 332 333 335 337 339 340 339
360 359 359 359 358 358 357 357 357 356 356 356 356 355 356 357 358 357 357 358 357 347 337 334 331 327 327 330 330 331 331 327 321 320 320 319 320 321 320 321 321 320 320 323 328 329 328 326 325 322 317 319 324 327 328 328 325 322 321 321 321 322 325 327 330 332 333 333 335 336 338 338 338 338
361 359 359 359 358 358 357 357 356 356 355 355 356 356 357 357 357 357 357 356 349 337 329 328 330 329 327 327 328 331 330 325 320 320 320 320 320 320 320 322 323 321 323 327 330 330 330 330 328 325 323 324 326 327 327 324 322 322 321 320 320 321 323 325 329 331 332 332 334 335 335 336 337 337
361 359 358 358 358 357 357 357 356 355 354 354 356 357 357 358 358 356 354 348 339 332 328 328 328 328 327 327 329 330 328 323 321 322 321 320 321 322 323 325 326 324 327 330 332 331 330 330 328 326 326 327 328 327 326 324 322 322 321 319 319 320 321 323 326 328 329 330 332 332 332 333 334 336
361 359 357 358 358 356 356 356 355 355 355 355 357 357 356 356 353 348 343 337 333 331 329 326 325 328 329 330 330 329 325 324 325 327 326 326 327 328 328 328 327 327 330 332 332 330 330 329 327 326 326 327 326 326 326 324 323 322 320 318 318 319 319 321 323 325 327 328 329 329 330 331 332 333
361 359 358 358 357 356 356 356 356 357 356 356 356 354 351 347 342 335 330 328 328 329 329 328 329 330 330 330 330 330 329 329 329 329 330 331 331 331 331 329 329 329 331 331 331 329 329 329 328 326 326 326 325 325 324 324 323 322 320 318 317 317 318 320 321 322 324 324 325 327 327 328 329 330
360 360 359 358 357 356 356 356 356 356 354 353 350 346 342 339 335 331 327 326 326 328 328 329 330 331 330 330 330 329 330 331 331 331 332 332 331 331 331 329 328 329 329 330 330 328 328 328 327 326 325 325 325 324 323 323 323 322 320 318 317 316 317 318 319 320 320 321 322 324 325 325 326 327
361 360 360 359 357 355 355 355 353 351 350 347 342 338 336 336 334 330 327 326 326 326 326 329 331 331 329 328 328 328 329 331 331 331 331 330 330 330 330 328 327 328 329 329 329 328 327 326 326 325 324 324 324 323 323 323 322 322 321 319 317 316 316 316 316 317 319 320 320 321 322 323 323 324
362 361 360 358 356 355 354 352 348 345 343 340 336 335 335 332 328 327 328 329 326 324 326 331 332 329 327 328 329 329 329 331 331 330 330 329 329 329 328 328 327 328 328 328 328 327 326 326 325 324 324 323 323 323 323 322 322 321 321 320 318 317 316 315 314 314 317 319 319 320 320 321 321 322
359 359 357 356 353 352 350 346 342 341 340 337 336 335 333 328 324 325 328 329 325 323 326 331 331 327 327 330 331 329 329 330 330 329 329 329 329 328 328 328 328 328 327 327 327 327 326 325 325 324 324 323 323 323 323 322 321 320 320 319 318 317 316 316 314 314 315 317 319 319 319 319 319 320
354 352 351 350 347 345 342 339 339 338 337 333 331 329 328 327 327 327 326 326 325 322 325 330 331 329 329 331 331 330 330 330 329 329 328 328 328 328 328 328 327 327 327 327 326 326 326 325 324 324 323 323 323 322 322 322 321 320 319 319 319 318 317 316 316 314 313 315 318 319 319 319 319 320
345 344 342 341 339 338 336 335 334 333 331 328 326 326 326 327 327 326 326 327 325 322 324 329 331 330 330 330 330 329 330 329 329 329 328 328 328 328 328 328 327 327 326 326 326 326 325 325 324 324 323 324 323 322 322 321 321 320 319 319 319 318 317 317 317 315 313 313 316 318 319 318 319 319
341 340 338 336 334 333 332 330 328 329 329 329 328 329 329 329 329 328 328 329 328 326 327 330 329 329 330 329 329 329 329 328 328 328 328 328 329 328 328 327 327 327 326 326 326 326 325 325 324 324 324 323 323 323 322 322 321 320 320 319 318 318 317 316 317 316 314 312 314 316 318 318 317 318
Wind_Speed
7 7 7 6 5 6 6 5 5 7 7 6 5 4 4 5 5 4 4 4 3 3 5 5 8 12 13 15 17 17 16 14 14 16 17 18 19 20 21 20 20 20 22 23 24 24 25 25 25 25 25 26 26 26 26 26 26 26 26 25 25 25 24 24 24 24 24 25 25 25 25 25 24 24
8 8 8 7 6 6 6 5 5 8 8 5 5 6 6 6 6 5 6 6 5 5 6 6 8 12 15 18 18 17 17 17 16 17 17 19 20 21 22 23 23 23 23 24 25 26 27 27 27 28 28 28 28 28 29 29 29 29 29 29 28 28 27 27 26 26 25 26 26 26 26 26 26 26
10 10 10 9 8 8 7 6 6 8 10 8 6 7 8 7 7 7 8 9 7 6 8 9 10 12 15 17 17 18 20 20 20 20 20 21 21 21 22 23 24 25 25 25 25 26 27 27 27 28 28 29 30 30 31 31 31 31 31 32 32 32 31 30 30 28 28 27 27 27 28 27 27 27
11 11 11 10 10 10 9 9 8 8 11 10 8 8 10 9 9 9 10 12 12 11 11 13 13 13 14 15 17 19 21 22 23 23 24 24 24 24 25 25 26 26 25 25 25 26 26 27 27 28 28 29 30 31 32 33 33 33 33 34 34 34 34 34 34 32 31 30 28 28 28 29 29 28
12 11 11 11 11 11 11 10 9 9 10 11 10 9 10 10 10 11 12 13 16 15 14 15 16 16 16 17 19 21 23 24 24 25 27 28 28 28 28 28 28 27 26 25 25 25 26 26 27 28 29 31 31 32 33 34 34 35 35 35 36 36 36 36 37 36 35 34 32 30 30 30 30 30
13 13 12 11 12 12 12 12 11 10 10 11 10 10 11 11 11 12 14 15 17 18 18 18 19 19 19 20 22 24 26 28 27 28 29 29 28 28 28 28 28 28 29 28 26 25 25 26 27 28 29 31 32 34 34 35 35 35 36 36 37 38 38 38 38 38 38 37 36 34 33 32 31 31
14 13 13 12 12 12 12 12 12 11 12 12 12 12 12 12 11 12 15 17 20 21 21 21 21 20 20 22 24 26 28 28 28 28 29 29 28 28 27 27 27 27 28 28 27 26 25 26 27 27 28 29 30 32 34 35 36 37 37 37 38 38 39 39 39 39 39 39 39 38 37 35 33 33
14 14 13 13 13 13 13 13 13 12 13 13 13 14 14 13 13 14 16 19 21 23 24 24 24 24 25 26 27 27 27 28 28 27 26 24 23 23 22 22 24 25 25 26 26 26 26 28 29 28 27 27 28 29 31 32 33 35 36 37 38 39 39 40 40 40 40 40 40 40 39 39 37 35
16 15 15 15 14 14 14 15 14 13 13 14 14 14 14 14 15 16 18 19 21 22 24 25 26 27 29 30 29 28 28 28 24 20 18 17 17 18 18 18 21 22 22 22 24 26 27 28 28 27 25 25 26 26 27 28 30 32 33 35 36 37 38 39 40 41 41 41 41 41 41 41 40 39
18 18 18 17 16 16 16 15 15 14 14 15 15 15 15 15 16 17 19 20 21 21 23 26 28 29 30 31 31 29 25 21 18 17 17 16 16 17 18 19 21 19 18 20 22 24 25 25 25 26 28 29 29 29 27 27 27 28 30 32 33 34 35 37 38 39 40 41 42 42 42 42 42 42
18 18 19 19 19 19 18 17 16 15 16 16 16 17 17 16 16 16 17 18 19 19 20 25 28 29 29 30 30 27 22 18 18 18 19 18 18 18 19 21 22 20 20 22 21 20 21 24 25 26 29 33 36 37 36 34 32 29 27 26 28 30 31 32 34 36 37 38 39 41 42 43 43 43
19 18 18 19 19 19 19 18 17 17 17 17 17 18 17 17 17 17 17 18 19 19 22 26 28 28 29 30 29 25 20 17 18 19 20 22 21 19 20 21 21 23 24 23 19 17 18 21 24 29 34 37 39 41 42 42 40 36 31 27 25 27 27 27 28 31 34 36 37 38 40 42 43 44
20 20 19 19 19 20 20 20 19 18 17 18 18 18 19 19 19 20 20 21 22 23 25 28 28 28 29 27 25 23 17 15 18 20 21 23 23 23 23 20 18 22 25 23 22 21 19 22 28 35 39 40 40 41 44 43 42 41 39 37 34 32 29 29 28 28 28 31 34 36 37 38 41 43
21 21 20 20 20 21 22 23 21 19 18 19 19 19 20 21 22 22 22 23 24 26 28 28 26 26 26 24 22 21 18 17 18 19 20 23 26 27 27 22 18 20 23 26 32 33 29 30 37 39 39 39 39 39 41 40 40 41 41 40 39 38 35 34 31 29 27 27 29 31 35 36 38 40
23 22 21 21 21 22 24 25 23 22 21 21 21 22 22 23 24 25 25 26 27 27 28 27 25 25 26 24 22 21 20 19 19 20 21 24 26 26 26 25 23 23 24 28 37 40 38 37 39 39 39 40 39 38 37 36 37 38 38 38 38 38 37 36 33 31 29 28 28 28 29 33 36 39
27 25 23 22 21 22 24 25 25 24 23 22 22 23 24 25 26 27 28 28 28 28 29 29 29 28 27 26 25 23 22 23 23 24 24 24 24 24 24 28 30 30 30 32 37 42 41 37 36 38 38 35 34 35 36 36 37 37 38 39 40 39 38 36 34 32 31 30 29 28 28 28 31 35
28 28 26 25 24 23 24 26 27 27 26 24 24 24 25 26 27 28 29 29 29 30 30 31 33 32 30 29 27 24 24 26 27 27 27 24 23 23 24 28 33 34 34 34 36 40 41 37 33 33 32 29 30 32 33 34 36 36 36 36 37 37 37 36 34 33 32 30 28 28 28 28 28 30
29 29 28 28 28 27 27 28 29 29 29 28 27 26 27 27 27 28 28 29 29 30 31 32 33 32 30 29 28 25 25 27 28 29 28 25 26 27 26 29 34 36 34 32 32 38 39 34 30 29 29 30 31 30 31 34 35 34 32 31 32 33 33 33 32 31 29 28 27 26 26 26 26 27
30 30 30 30 30 29 29 30 29 30 30 29 28 27 28 28 28 28 28 28 28 28 30 31 31 30 29 28 27 26 25 26 28 30 29 28 30 30 30 32 33 31 29 26 26 32 33 28 29 33 33 32 33 33 33 34 33 30 28 29 30 30 31 30 29 28 27 26 26 26 27 26 26 25
32 32 32 32 31 31 31 30 30 30 30 29 28 26 26 26 25 25 26 26 26 25 24 25 26 27 28 28 28 27 26 26 28 29 30 29 29 30 32 33 28 21 21 21 19 23 28 29 32 37 37 34 35 36 33 29 27 26 26 28 29 29 29 29 28 27 26 25 23 25 27 27 27 26
35 35 35 34 34 34 33 32 31 30 30 30 29 28 27 27 25 25 24 23 24 24 23 22 22 23 26 28 29 28 26 25 25 27 28 27 27 29 32 32 27 21 19 17 15 21 30 33 33 36 39 38 35 33 29 25 24 25 25 27 28 28 28 30 30 29 29 27 24 23 26 28 28 26
37 37 37 36 36 36 35 33 32 31 31 31 30 29 29 28 28 28 25 22 21 23 22 21 21 23 27 29 28 25 22 22 22 24 25 24 24 26 26 27 31 29 20 13 19 29 36 36 35 37 40 41 36 29 25 25 27 27 28 28 27 26 26 27 28 30 30 30 28 27 27 28 27 26
38 38 39 38 38 37 36 35 34 33 32 32 31 30 29 29 29 28 24 20 19 20 20 20 21 22 25 27 25 23 20 19 20 20 21 22 22 21 20 22 28 29 22 19 27 34 35 36 37 36 34 37 37 33 29 30 32 32 31 29 26 25 26 27 28 29 30 30 29 28 27 26 26 26
37 38 39 39 39 38 37 36 35 34 33 33 32 31 31 30 28 25 21 20 20 21 21 21 20 22 24 25 25 23 20 18 18 18 18 18 17 16 19 24 26 25 23 25 29 31 32 33 34 32 29 30 34 36 35 35 34 33 30 27 26 27 28 28 28 29 30 30 29 26 24 23 24 26
35 36 37 39 39 38 37 36 36 35 34 33 33 34 33 32 30 27 25 24 24 24 23 23 24 23 22 20 18 17 14 13 13 13 12 13 15 18 22 25 25 24 23 25 26 27 29 30 30 31 30 28 30 34 37 35 32 30 28 26 25 25 25 25 25 27 29 30 28 25 25 23 22 23
33 33 34 36 37 37 37 36 35 35 34 34 35 35 34 33 33 32 30 28 26 24 23 23 21 18 14 13 13 11 8 7 8 10 12 16 19 21 22 20 20 22 23 24 24 26 28 29 30 29 28 27 28 30 32 33 30 27 26 25 23 23 22 22 24 26 27 27 26 26 26 25 23 22
31 30 29 30 32 32 33 33 32 32 32 33 35 34 33 33 33 33 31 28 26 25 23 22 20 16 13 12 10 9 8 10 13 17 18 20 20 20 19 18 18 19 21 22 24 26 28 29 30 28 24 24 27 28 28 29 29 29 30 30 29 30 27 24 25 26 25 26 27 28 28 28 26 23
24 25 25 25 26 26 27 28 29 29 30 32 32 32 32 32 31 31 29 27 25 23 20 17 16 14 12 11 11 12 14 16 18 20 20 19 18 17 17 17 16 17 19 21 23 25 26 27 29 27 21 20 23 26 27 28 28 30 33 34 33 32 29 26 26 27 27 28 30 29 29 29 28 26
24 26 26 24 25 25 25 25 26 27 29 30 30 30 30 30 29 29 27 25 23 19 14 11 10 10 11 15 18 17 16 17 18 19 18 17 16 15 15 15 15 16 18 20 21 22 24 26 27 27 24 22 22 24 27 29 29 29 31 33 34 32 30 28 27 28 28 28 28 27 27 27 28 27
29 30 29 27 27 27 26 26 26 27 28 29 29 29 28 28 28 26 24 21 17 13 10 9 10 11 14 17 19 17 16 17 17 17 16 15 14 14 13 13 13 15 17 18 19 22 24 26 27 28 28 26 24 24 26 28 29 31 32 35 38 38 36 34 33 32 31 29 27 25 25 27 29 28
29 31 31 31 30 29 28 28 29 29 29 29 29 28 28 27 25 23 21 19 16 15 15 16 17 18 17 16 16 15 15 15 15 14 14 13 12 12 12 13 14 16 17 18 20 22 23 25 26 28 30 30 28 26 25 25 27 31 35 37 38 38 38 37 36 36 35 35 32 28 26 26 28 29
27 29 31 32 32 32 31 31 31 31 31 31 30 29 28 26 23 23 24 24 24 25 24 23 22 20 18 15 14 12 11 12 13 12 11 11 10 11 12 14 16 18 19 20 21 22 23 24 25 27 29 30 28 25 24 23 24 30 36 39 38 35 34 35 35 33 33 33 32 29 26 24 25 27
28 29 30 31 33 35 34 33 33 34 34 33 32 32 30 26 24 26 28 29 29 27 24 23 22 18 15 13 12 9 8 11 12 10 9 10 10 11 13 14 16 18 21 22 22 22 24 25 25 25 25 25 24 24 23 24 26 31 37 40 39 36 34 32 32 30 28 26 26 25 23 22 22 23
28 30 32 31 33 35 35 34 35 35 35 34 34 33 30 27 26 28 29 30 28 24 20 18 17 14 12 10 8 7 8 10 11 10 9 10 11 11 13 14 15 17 19 20 20 20 22 23 24 25 24 22 22 23 23 25 29 33 36 38 38 38 36 32 28 25 23 23 23 23 22 21 21 20
30 32 33 33 33 35 35 35 35 33 31 32 33 32 30 29 30 29 29 27 24 20 16 14 12 12 13 11 8 7 8 9 10 10 10 10 10 11 12 14 15 17 18 18 17 19 20 21 22 24 24 21 20 22 23 25 28 31 35 37 38 39 38 33 27 23 22 22 22 23 22 21 20 21
30 30 31 31 32 32 33 33 32 28 26 28 31 32 31 31 30 28 26 23 20 17 15 13 11 12 13 11 8 7 8 9 10 9 9 9 9 10 11 12 14 16 16 15 15 17 18 18 20 22 22 19 18 20 22 25 27 29 33 36 38 39 40 35 29 25 23 22 20 21 22 22 21 21
29 29 29 29 28 28 30 30 28 27 27 29 31 32 30 28 25 23 21 21 18 16 14 13 13 13 12 9 8 8 8 9 9 8 9 9 9 9 10 11 13 14 14 14 14 14 15 17 19 21 21 20 20 20 21 24 26 28 31 34 37 39 40 37 33 28 25 23 22 20 20 21 20 20
28 28 28 28 26 26 29 30 30 31 32 31 29 26 21 18 17 16 15 14 13 12 13 14 13 11 10 8 7 7 7 7 7 7 7 7 7 8 9 11 13 13 13 13 13 13 15 16 18 20 21 20 20 22 23 24 25 25 28 33 36 37 38 39 37 33 30 27 25 22 20 20 19 18
27 27 28 29 27 27 29 30 31 32 30 25 21 17 15 13 14 14 13 12 12 13 15 14 11 10 10 10 9 8 7 7 7 7 6 7 7 8 9 10 12 12 13 13 13 14 15 15 16 20 22 19 18 21 23 23 23 24 27 31 35 36 36 37 38 37 35 32 28 25 22 20 18 17
29 29 30 29 28 28 29 29 27 25 23 19 17 18 21 21 18 15 14 14 15 16 14 11 10 12 13 12 10 8 7 8 8 8 7 7 8 8 9 10 11 11 12 13 14 14 15 15 16 20 22 20 19 21 22 21 22 23 25 29 33 34 34 35 36 38 37 35 31 27 24 22 21 20
31 31 30 30 30 31 30 26 22 19 21 24 25 25 27 23 16 13 15 17 18 17 15 12 12 16 14 11 10 9 8 8 9 8 8 8 8 9 10 11 12 12 13 14 14 14 15 16 17 19 19 19 20 21 21 21 22 23 24 26 29 32 32 32 33 34 35 34 31 26 23 21 20 21
30 30 30 30 30 28 24 20 20 21 25 28 27 25 23 18 12 13 17 18 17 17 15 12 13 15 13 10 10 9 8 8 9 8 8 9 9 10 11 12 12 13 14 15 15 15 15 16 15 15 16 17 18 18 19 21 22 23 23 23 25 27 29 29 30 30 31 31 30 27 24 20 17 18
24 24 24 25 23 20 17 17 20 24 26 26 24 21 19 17 16 17 18 16 15 16 15 11 10 12 12 11 11 9 8 8 9 10 11 11 11 12 13 13 13 14 15 15 16 15 15 16 15 14 15 16 16 16 18 19 20 20 21 22 22 22 23 25 26 27 28 28 27 25 23 19 14 13
19 19 19 20 21 21 20 18 17 18 19 18 18 18 18 16 16 16 14 11 12 14 13 12 12 13 13 12 10 9 8 9 11 12 12 12 13 14 15 15 15 15 15 16 17 17 16 16 16 15 14 15 15 15 17 18 19 19 19 20 21 20 19 20 22 23 25 26 25 23 22 19 14 10
22 21 20 21 22 23 21 18 15 14 13 12 12 13 14 12 11 11 11 10 11 13 13 13 13 13 13 11 10 10 11 11 13 14 13 14 14 15 16 16 17 17 17 17 18 19 18 16 16 16 16 15 14 14 15 17 17 17 17 17 18 19 19 18 18 19 22 24 23 21 20 19 18 16
Wind_Direction
227 231 239 240 223 220 229 229 231 240 243 247 263 272 264 266 276 278 281 290 281 275 285 266 269 293 298 292 295 300 302 306 306 303 302 298 296 297 298 296 293 292 291 291 291 291 290 289 288 286 285 284 283 282 281 280 279 278 277 276 276 275 274 273 272 271 271 271 271 271 271 271 272 272
226 227 231 240 243 242 248 249 249 258 269 278 282 281 278 279 284 281 276 280 281 275 280 276 280 294 295 292 295 296 298 304 306 304 301 299 300 301 301 300 300 299 298 296 295 295 294 293 293 291 289 288 286 284 282 281 280 279 278 277 276 275 274 273 272 271 269 269 268 269 269 268 269 270
229 228 225 228 235 239 242 240 240 254 269 280 278 275 285 291 290 292 286 283 285 282 276 273 277 286 290 290 292 294 297 301 304 304 303 301 301 302 300 301 302 302 303 302 301 299 298 297 295 294 292 290 287 285 283 281 280 279 278 277 276 275 274 273 272 271 270 268 267 267 267 267 267 267
230 234 232 231 234 235 237 239 236 241 256 267 268 264 275 286 291 295 293 290 296 299 293 288 287 287 285 282 283 286 292 298 301 304 307 307 307 306 305 304 303 303 303 303 302 300 298 296 294 292 290 288 286 283 281 280 278 277 277 276 276 275 274 273 272 270 269 268 267 266 266 266 266 266
230 235 237 238 239 239 241 244 243 241 249 259 263 261 263 269 277 284 291 296 301 305 304 301 300 299 294 291 292 294 298 302 303 304 307 308 308 308 309 308 307 308 308 307 306 304 302 300 297 295 293 291 289 286 283 281 278 276 275 274 274 273 272 272 271 270 269 268 267 266 266 265 264 264
232 235 240 242 243 243 245 246 244 243 246 251 257 260 261 262 265 272 284 293 299 302 303 300 299 300 297 296 299 302 304 306 305 304 305 306 305 307 309 309 309 310 311 312 313 312 310 306 303 300 298 295 293 292 289 287 284 281 279 276 274 273 272 270 269 268 268 267 266 265 265 264 263 263
242 240 242 243 244 245 246 251 249 243 242 243 246 250 253 257 260 265 275 285 292 296 298 296 295 294 292 291 296 300 302 302 301 301 303 304 303 305 305 305 303 303 305 307 309 310 309 306 303 301 298 296 294 294 293 291 290 288 286 283 280 278 275 273 270 267 266 265 264 264 263 263 262 262
251 246 244 243 242 240 242 250 253 248 247 249 249 252 258 265 270 271 273 279 287 292 294 296 298 297 298 300 302 303 302 301 302 301 301 299 298 299 298 298 299 301 302 305 308 310 308 305 304 303 301 298 295 294 294 293 292 290 289 288 286 284 281 278 274 271 267 264 262 261 261 260 260 260
249 248 247 245 241 237 237 245 252 249 250 255 258 263 270 277 282 285 287 287 287 288 290 295 299 302 305 306 307 306 306 306 306 303 298 296 297 299 300 300 303 306 307 308 307 306 306 306 308 310 309 305 300 297 297 297 295 293 290 288 287 286 285 282 279 275 271 268 265 262 259 258 258 257
250 249 248 246 243 240 237 240 245 247 250 259 266 272 277 280 280 284 289 291 291 290 292 297 302 304 305 306 307 308 308 306 304 304 305 305 306 306 304 305 309 306 300 300 299 298 303 308 312 315 316 315 313 309 305 303 301 299 295 290 287 286 285 282 280 278 275 272 269 266 262 259 257 255
249 249 249 247 245 245 244 242 241 245 253 262 271 277 281 279 277 277 279 283 285 285 288 294 298 300 301 302 302 302 302 303 306 310 313 311 309 306 302 307 313 306 298 301 302 302 308 311 312 315 318 319 321 319 315 313 310 308 305 297 292 293 291 286 282 278 276 274 272 269 266 263 259 255
242 242 245 247 247 248 250 249 246 246 253 262 269 274 277 275 274 275 275 274 275 277 282 288 292 294 296 297 298 298 301 307 307 306 307 306 307 308 306 308 312 309 306 308 306 304 307 307 310 317 320 322 323 322 320 319 317 316 313 308 301 302 302 299 292 284 277 273 272 270 268 266 262 258
240 240 240 242 245 249 253 256 255 253 256 263 268 271 273 272 273 276 277 277 279 281 285 287 290 293 294 295 297 297 298 302 301 300 301 304 307 309 308 305 309 312 311 310 308 307 308 310 314 319 322 324 326 325 324 323 321 319 317 314 311 310 310 310 308 300 288 278 272 269 267 266 264 261
239 242 244 243 243 246 253 258 261 262 264 268 271 271 271 270 272 274 274 276 279 282 284 286 288 288 289 291 293 294 298 299 296 294 296 302 307 309 309 309 312 314 311 309 312 315 316 318 320 322 324 326 328 327 325 322 320 320 320 318 317 316 315 315 315 311 304 295 284 274 268 265 263 261
240 242 246 249 247 247 253 260 264 267 269 270 273 274 273 272 273 273 272 273 275 276 279 282 282 281 284 287 289 293 298 293 289 293 300 305 307 308 308 308 310 313 312 309 312 317 321 322 322 325 328 329 329 330 330 328 324 320 318 318 318 317 317 318 317 315 312 308 303 294 281 270 263 260
247 247 246 247 249 252 258 263 267 268 268 270 271 273 274 273 274 274 274 274 274 272 273 275 276 277 279 283 288 293 294 290 292 301 306 306 305 304 302 303 308 316 317 313 313 318 324 327 325 327 329 326 324 326 329 330 328 322 316 314 313 314 314 315 316 316 315 312 308 305 299 286 272 263
250 251 251 249 248 251 257 264 269 271 272 274 273 272 272 272 273 275 276 277 276 273 271 271 275 277 278 281 287 290 289 290 297 303 305 303 301 299 300 304 311 317 320 320 319 321 328 332 327 324 323 318 313 312 313 318 323 323 318 311 308 309 310 310 312 313 314 313 310 306 303 297 285 272
250 251 253 254 254 254 257 262 267 271 274 276 277 277 276 276 276 275 275 276 276 274 272 272 275 279 280 281 283 284 284 290 298 303 303 301 301 303 305 309 313 318 324 327 323 321 327 332 324 317 316 314 311 307 306 311 318 323 322 318 313 311 309 309 310 311 313 313 312 309 305 301 295 285
249 251 252 254 256 257 259 261 264 269 272 273 275 277 278 279 279 278 277 277 275 273 272 272 275 278 279 278 279 280 283 290 298 300 298 299 305 309 311 313 317 321 327 327 317 313 320 324 317 314 314 312 310 310 309 313 320 323 322 318 313 310 309 310 310 312 314 312 310 310 309 305 302 297
247 250 252 255 257 258 259 261 264 266 269 270 270 271 273 275 275 275 279 282 282 280 276 274 276 277 276 275 277 280 285 293 296 295 295 301 308 310 311 315 318 319 322 323 312 304 311 317 315 315 316 314 313 316 317 316 319 319 313 311 310 309 308 307 308 312 314 311 308 308 309 306 304 303
246 249 251 253 256 258 260 262 263 265 267 268 267 266 267 267 265 265 268 273 278 281 280 280 281 279 275 276 279 284 291 295 293 293 297 304 309 309 310 314 318 320 326 329 314 304 311 317 317 317 318 319 320 322 321 317 316 314 310 310 310 307 304 301 302 306 309 310 309 308 307 305 301 299
246 249 251 253 255 257 260 262 264 265 266 267 267 266 266 264 264 266 266 263 266 272 275 277 279 280 280 281 285 291 296 295 292 295 299 304 308 308 309 316 321 325 330 323 309 311 317 321 321 321 322 325 328 327 321 317 317 316 315 314 313 310 308 303 301 301 302 303 304 305 305 303 298 293
246 248 251 253 254 256 258 261 263 264 265 266 267 266 265 263 262 265 264 259 258 262 268 274 278 279 279 280 287 295 295 290 291 295 297 302 308 309 310 316 320 321 322 316 314 318 321 324 326 327 326 325 328 330 326 322 323 324 325 326 323 319 314 308 305 306 307 308 307 307 307 304 298 292
247 249 250 252 254 256 257 259 261 262 263 265 265 264 263 262 260 259 257 252 249 250 255 261 265 267 269 276 288 296 293 291 297 301 303 306 309 306 305 310 312 311 312 314 318 322 324 325 330 334 330 322 322 327 328 328 333 337 334 329 324 321 320 319 318 317 318 319 319 317 313 307 300 295
246 248 250 253 254 255 256 257 258 260 261 262 262 262 262 260 257 254 249 247 248 250 253 256 257 261 269 278 286 291 295 303 307 308 309 304 298 297 302 310 313 313 315 319 322 326 329 332 335 337 334 325 318 321 325 330 337 339 334 328 326 325 327 328 327 323 321 321 322 321 317 312 305 299
246 247 249 252 254 256 257 257 257 258 259 258 258 260 261 259 256 254 252 251 253 256 260 263 263 267 276 280 278 277 281 281 271 271 281 289 295 303 309 315 319 320 323 326 327 330 336 340 340 337 331 325 321 321 325 328 331 332 332 331 330 327 326 325 325 325 323 320 320 320 318 315 311 304
246 245 246 248 252 255 257 257 257 257 257 255 255 257 257 255 254 255 256 257 257 258 261 263 267 274 282 280 275 270 265 264 269 279 291 300 308 315 321 324 324 324 325 328 334 341 343 341 339 335 328 325 324 323 323 323 325 327 330 330 329 328 328 325 321 320 318 316 317 316 313 313 315 310
242 244 243 244 247 250 253 254 256 255 253 252 252 252 251 251 252 254 256 259 261 263 265 267 273 281 283 272 262 264 274 285 294 300 307 316 321 322 326 328 327 328 334 341 347 349 345 340 339 336 331 326 323 322 322 322 323 327 330 331 333 332 329 324 320 317 314 314 316 315 311 311 315 313
230 235 238 240 242 245 248 250 252 252 250 248 247 246 246 247 249 252 256 259 261 263 266 272 278 278 272 267 269 276 287 297 303 308 314 320 322 324 328 330 332 342 353 357 355 351 348 347 344 337 333 330 326 324 324 324 329 335 334 331 329 324 320 320 319 316 312 312 313 313 309 307 311 311
224 226 230 234 237 240 243 245 247 249 247 244 244 245 245 246 249 252 254 254 254 254 252 251 253 254 258 267 276 287 295 298 302 308 315 320 323 326 329 330 340 358 7 4 358 356 357 357 351 342 340 339 336 334 333 332 335 336 331 326 323 319 316 315 312 308 306 305 308 313 313 310 312 312
226 227 227 228 231 235 238 241 244 247 247 245 244 244 245 246 247 246 245 243 243 244 244 241 243 248 256 268 285 297 300 299 303 309 315 320 324 326 331 338 349 0 4 1 360 1 1 0 358 353 349 346 344 343 344 342 337 332 329 332 333 329 324 319 313 308 304 301 300 305 311 312 313 311
225 228 229 228 230 232 235 239 242 245 246 243 241 242 243 242 239 238 241 243 244 245 247 246 245 248 254 266 285 297 293 290 299 308 314 319 321 324 335 349 356 357 356 356 359 2 1 1 3 1 354 349 346 344 345 344 338 333 336 342 344 341 334 329 324 319 313 307 303 303 305 308 309 307
223 227 230 229 229 231 233 236 240 243 243 241 239 240 241 239 237 238 239 240 241 241 240 237 238 245 256 269 282 288 278 282 297 308 308 309 316 327 341 355 359 357 356 356 356 356 354 356 1 4 0 354 347 342 340 337 336 339 345 347 348 350 347 341 336 333 329 325 319 314 310 308 307 307
220 226 229 227 228 231 232 233 237 240 241 241 240 241 241 239 237 235 237 241 242 237 229 227 233 244 258 270 279 276 270 281 294 299 300 306 317 332 346 356 358 356 356 355 351 346 345 347 351 356 1 1 351 342 339 335 335 342 349 350 350 354 355 350 344 344 347 345 337 327 321 317 314 315
218 224 228 227 228 230 231 232 236 238 240 241 242 242 241 238 234 233 238 243 239 230 228 234 239 249 259 266 269 268 271 281 289 292 299 309 325 341 352 355 352 350 351 349 343 339 341 343 344 347 353 357 350 340 339 340 340 343 348 352 355 357 357 354 350 350 352 347 337 331 331 332 327 321
220 223 227 227 228 231 232 233 235 235 235 239 240 240 239 238 237 236 235 233 228 228 237 243 244 254 263 265 258 256 265 275 283 292 300 310 329 348 353 348 342 342 343 339 333 335 339 342 345 346 346 345 342 337 336 340 344 343 345 351 357 358 357 357 356 354 352 345 337 336 338 337 331 319
221 222 225 227 227 229 231 232 232 232 233 236 237 238 238 238 236 229 223 223 226 231 234 236 239 246 251 249 247 255 266 275 280 289 303 316 331 338 337 335 334 334 333 330 329 334 338 340 344 348 347 342 341 340 336 338 342 341 342 351 357 358 359 1 0 359 358 354 348 345 342 338 332 320
222 221 226 229 226 226 231 235 234 234 236 238 238 235 232 229 223 215 214 224 228 220 219 226 232 236 237 238 246 251 254 264 274 284 297 310 315 312 315 323 325 323 325 326 327 332 337 336 336 342 346 343 340 338 337 339 340 338 342 352 358 359 2 4 3 1 360 357 353 349 345 340 336 328
220 220 226 229 226 225 232 235 235 237 239 239 234 222 205 198 203 205 210 220 218 211 216 221 219 221 227 229 234 241 245 253 267 278 284 290 296 298 303 311 317 318 320 322 321 325 332 333 329 333 340 342 337 334 335 335 334 335 341 348 354 358 2 5 5 3 1 357 353 349 346 344 341 338
220 219 224 227 225 225 230 231 231 233 229 214 198 189 187 190 197 201 207 217 220 217 215 212 211 220 227 228 231 239 247 252 260 268 271 278 287 288 288 301 316 320 316 315 317 320 325 327 325 329 336 341 337 334 334 333 333 338 341 344 349 355 0 3 4 4 2 358 353 349 347 347 348 348
224 222 223 224 222 224 227 226 221 215 203 190 183 185 192 196 196 201 213 224 228 220 206 200 216 227 230 232 235 237 241 247 254 261 269 276 282 283 286 301 314 314 309 311 313 313 318 325 326 326 332 336 333 332 334 336 337 342 345 344 346 351 356 360 1 2 360 357 354 353 350 348 347 348
219 219 219 218 218 220 222 214 202 193 189 186 185 191 199 203 204 215 225 233 235 224 208 206 226 234 230 229 234 236 238 245 252 261 269 275 281 285 289 296 302 302 303 306 307 306 311 321 323 319 323 328 328 328 331 334 336 340 344 345 346 348 351 353 354 357 358 356 355 358 359 353 343 338
212 212 212 210 209 204 195 191 192 191 189 190 192 196 202 209 217 226 233 237 233 221 210 210 229 236 230 228 233 239 243 251 259 268 273 277 282 286 289 291 294 297 299 300 301 303 307 313 315 314 319 324 325 325 328 331 333 336 340 343 344 346 348 347 346 349 355 357 358 3 6 1 347 331
190 189 190 190 187 179 172 173 181 186 188 194 200 200 201 209 220 222 220 224 227 221 214 218 230 235 232 233 238 247 257 264 267 268 272 279 282 284 287 289 288 288 290 293 296 299 302 306 308 308 314 320 317 315 320 325 327 331 335 339 341 344 348 347 343 344 351 357 2 9 15 18 18 7
184 184 182 180 179 179 177 174 172 175 177 183 193 195 192 199 212 209 201 206 217 216 214 221 230 235 238 244 249 253 260 269 273 272 276 283 284 284 288 289 287 286 288 291 293 294 295 300 302 303 309 314 309 306 314 318 320 324 328 329 333 340 345 344 344 345 349 357 9 20 27 34 44 49